Location: Eastlake (historical)
(39.0077°N, 122.6678°W)
Time: 16:36:53
(UTC+00:00)

Meteor 2-3 Rocket - Visible Passes

Search period start: 16 April 2021 00:00
Search period end: 26 April 2021 00:00
Orbit: 842 x 885 km, 81.3° (Epoch: 15 April)

Date Brightness Start Highest point End Pass type
(mag) Time Alt. Az. Time Alt. Az. Time Alt. Az.
16 Apr 4.2 05:38:35 10° N 05:43:11 53° NNE 05:43:11 53° NNE visible
16 Apr 6.2 07:23:40 10° NW 07:25:29 14° WNW 07:25:29 14° WNW visible
17 Apr 4.0 05:30:28 10° N 05:35:25 58° NE 05:35:25 58° NE visible
17 Apr 6.1 07:15:31 10° NW 07:17:44 15° WNW 07:17:44 15° WNW visible
18 Apr 3.8 05:22:20 10° N 05:27:41 62° ENE 05:27:41 62° ENE visible
18 Apr 6.1 07:07:22 10° NW 07:09:59 15° WNW 07:09:59 15° WNW visible
19 Apr 3.7 05:14:13 10° N 05:19:55 63° E 05:19:58 63° E visible
19 Apr 6.0 06:59:13 10° NW 07:02:16 16° W 07:02:16 16° W visible
20 Apr 3.7 05:06:04 10° N 05:11:48 63° E 05:12:16 60° ESE visible
20 Apr 6.0 06:51:04 10° NW 06:54:19 16° W 06:54:35 16° W visible
21 Apr 3.7 04:57:56 10° N 05:03:39 63° E 05:04:36 54° ESE visible
21 Apr 6.0 06:42:55 10° NW 06:46:11 16° W 06:46:55 15° W visible
22 Apr 3.8 04:49:49 10° N 04:55:31 62° ENE 04:56:58 47° SE visible
22 Apr 6.0 06:34:45 10° NW 06:38:03 16° W 06:39:16 15° W visible
23 Apr 3.8 04:41:41 10° N 04:47:22 62° ENE 04:49:21 39° SE visible
23 Apr 6.0 06:26:36 10° NW 06:29:55 16° W 06:31:40 14° WSW visible
24 Apr 3.8 04:33:33 10° N 04:39:15 61° E 04:41:46 32° SSE visible
24 Apr 6.0 06:18:27 10° NW 06:21:47 16° W 06:24:05 13° WSW visible
25 Apr 3.8 04:25:26 10° N 04:31:06 61° ENE 04:34:14 26° SSE visible
25 Apr 6.1 06:10:18 10° NW 06:13:39 16° W 06:16:33 11° WSW visible
